Theta_e
306 305 303 303 302 302 302 302 302 302 302 303 303 303 303 304 305 304 304 308 302 294 296 300 300 295 296 295 289 296 292 293 293 290 291 290 289 292 292 293 290 291 292 295 298 294 290 308 308 301 307 309 308 308
306 304 303 302 302 301 301 301 301 302 302 302 303 303 303 304 305 305 301 307 309 297 298 304 304 306 305 303 298 296 293 290 291 289 291 289 288 292 290 288 295 293 296 294 292 292 303 311 309 313 313 310 306 301
306 304 303 302 301 301 301 301 301 302 302 302 302 302 303 304 305 304 302 304 303 296 298 303 304 309 311 309 308 295 296 294 293 294 290 290 287 290 287 288 290 298 300 295 295 297 306 310 312 311 310 309 308 304
305 304 302 301 301 300 300 301 301 301 302 302 302 302 303 305 305 305 302 305 302 296 289 299 309 306 311 310 307 306 303 300 297 295 290 290 289 296 289 289 290 291 295 294 294 298 302 306 307 308 307 308 307 305
304 303 302 301 300 300 300 301 301 301 301 302 302 303 304 304 304 305 305 305 306 299 291 294 302 308 310 309 308 308 303 298 294 291 290 290 295 293 292 292 288 290 292 293 289 298 301 301 303 301 299 299 298 296
303 302 301 300 300 300 301 301 301 301 301 302 302 303 304 304 304 304 300 307 309 307 293 289 304 305 308 310 308 304 303 299 295 295 294 294 297 294 291 288 290 294 296 298 293 299 300 300 301 302 299 299 298 297
302 301 300 299 299 300 300 300 301 301 301 301 302 303 304 304 306 303 301 304 305 307 294 290 296 306 309 307 306 304 304 300 297 294 293 295 294 296 289 286 289 294 295 296 297 296 292 295 293 298 301 300 301 300
301 300 299 299 299 300 300 300 300 301 301 302 303 304 304 304 306 304 307 306 309 303 299 290 294 300 307 301 299 306 300 299 297 295 296 293 295 295 287 286 291 293 293 293 293 293 293 293 293 293 295 296 295 296
300 299 298 299 299 299 300 300 300 300 301 302 303 304 307 305 304 303 305 306 310 301 293 293 291 291 304 301 302 302 301 292 298 292 293 295 290 286 289 291 291 292 291 291 291 293 292 291 292 294 295 297 295 296
299 298 299 299 299 299 299 300 300 300 302 303 305 305 302 304 304 308 304 303 299 299 298 294 298 293 301 300 298 296 297 293 288 293 297 291 288 294 295 294 294 296 296 296 293 292 293 293 293 294 294 294 295 296
298 298 298 299 299 299 299 299 300 300 302 306 302 301 305 307 307 302 297 295 298 294 299 300 299 297 303 296 294 298 294 295 290 292 292 290 287 295 299 299 300 300 300 300 298 298 298 297 296 296 295 296 296 296
298 298 298 298 299 299 299 299 299 300 301 299 298 301 304 302 298 293 293 297 294 291 299 298 298 301 300 303 297 297 293 294 288 297 292 287 291 297 299 301 301 300 298 297 297 296 296 296 296 295 295 295 295 296
298 298 298 298 298 299 299 300 301 301 302 303 298 296 296 297 288 289 288 292 293 297 299 297 296 300 300 303 298 296 291 289 298 292 287 288 295 298 299 300 299 300 299 298 297 298 298 298 298 297 296 296 295 295
298 298 298 298 298 299 300 300 300 301 300 295 292 287 292 290 292 293 294 295 297 297 298 297 298 296 300 297 298 292 294 296 290 287 285 291 297 298 299 300 301 300 300 299 300 299 299 298 298 298 297 297 295 294
297 297 298 298 299 299 299 299 300 302 297 292 293 288 292 297 298 299 299 299 302 302 299 297 299 298 297 295 297 295 291 287 289 286 290 297 301 300 301 302 302 302 302 302 301 300 299 299 298 298 298 298 296 296
297 297 299 299 298 298 299 301 301 301 297 295 295 293 296 297 299 299 299 299 302 302 302 300 295 292 292 294 291 289 288 286 287 291 295 301 302 302 303 304 303 303 303 302 301 300 300 299 299 299 299 298 297 296
296 300 299 297 298 298 300 299 300 294 295 293 293 298 296 297 299 299 300 299 306 302 295 295 290 289 298 293 290 294 291 293 294 295 298 300 301 303 304 303 303 303 303 301 301 300 301 301 301 300 298 298 298 297
300 299 298 298 300 299 301 301 298 295 292 297 295 296 298 299 298 299 303 305 304 302 301 295 297 291 291 289 291 295 296 296 299 299 300 302 301 302 305 305 304 304 303 302 302 302 302 301 301 300 301 300 298 297
298 299 300 300 300 297 295 297 300 291 296 300 301 300 299 300 303 305 305 308 308 305 301 300 293 293 294 297 297 299 298 295 294 299 300 300 300 306 306 306 304 304 304 303 302 302 302 303 303 302 302 301 298 297
299 300 299 299 299 296 292 295 302 295 293 298 301 298 298 298 304 307 305 305 303 304 298 295 295 298 299 300 302 300 298 299 298 299 300 300 301 303 304 305 304 305 304 304 303 299 303 302 303 303 302 301 299 297
297 300 299 301 300 298 295 294 294 296 296 297 301 301 298 302 300 302 301 301 297 294 295 298 299 300 303 304 305 303 300 299 299 302 302 300 303 303 303 305 306 305 303 303 301 300 299 301 302 303 302 301 301 300
300 297 300 300 297 296 295 299 295 298 296 296 298 299 297 296 298 301 302 297 295 297 301 299 299 302 301 301 304 305 302 302 302 304 297 301 303 303 303 305 304 303 303 302 302 300 302 302 302 302 302 301 300 299
297 298 298 296 292 291 292 300 294 295 291 294 297 294 295 297 301 303 296 298 299 301 304 304 304 305 303 304 305 304 304 303 302 301 303 304 305 305 304 305 304 303 302 303 303 302 302 296 298 301 301 300 300 297
297 294 291 291 292 290 296 293 296 295 294 293 293 292 296 300 301 297 293 297 298 302 302 303 302 302 302 304 302 303 303 304 304 303 304 304 304 304 306 304 304 304 304 304 303 303 302 301 297 301 300 300 300 299
289 288 290 285 291 290 290 290 291 292 290 292 292 293 295 295 293 291 292 295 296 301 303 304 303 304 302 304 305 303 305 305 303 302 305 306 304 304 303 304 304 304 305 303 302 302 301 301 301 301 301 300 300 300
284 289 286 289 291 290 291 288 290 290 293 292 293 297 297 294 291 290 294 297 297 301 302 304 304 303 303 305 302 303 304 307 307 304 305 306 305 303 302 301 300 303 305 304 302 301 301 301 301 301 300 299 290 299
283 286 292 296 296 296 295 296 298 295 291 291 296 294 294 289 289 295 300 302 300 303 304 306 304 305 305 305 307 310 308 307 307 306 307 307 307 307 306 303 302 303 306 304 303 301 300 301 301 301 301 301 301 300
289 290 287 292 294 297 291 293 292 291 294 300 297 291 290 291 292 300 301 304 305 306 305 305 307 306 307 309 309 310 310 308 310 310 307 306 307 306 306 306 306 292 304 305 304 303 303 302 302 302 301 300 300 302
289 293 293 291 293 293 293 293 295 300 303 302 297 295 296 300 304 302 302 304 308 306 302 303 303 304 305 308 306 308 310 307 305 303 301 300 300 302 305 306 306 305 305 304 285 293 302 303 303 303 303 302 302 302
290 294 291 291 290 291 296 300 300 304 304 304 303 301 300 303 306 308 307 307 305 304 302 303 304 303 302 302 303 303 308 308 306 303 301 300 302 304 305 304 305 304 304 305 305 303 287 298 296 303 301 302 301 301
294 293 291 292 293 297 300 302 305 303 303 302 302 297 296 300 302 304 305 305 307 305 304 303 303 303 302 303 302 302 301 307 306 306 305 306 306 307 306 306 306 306 306 306 305 304 302 301 302 302 301 301 300 298
293 292 292 289 294 299 301 299 299 298 301 300 299 300 298 297 295 302 306 306 303 301 295 298 301 300 303 306 302 299 289 303 306 306 305 306 306 307 307 306 306 306 306 305 304 303 303 302 302 301 300 299 298 297
294 293 294 295 294 293 297 298 296 295 296 296 296 298 297 296 293 300 307 307 305 303 302 303 304 303 300 302 297 296 295 301 291 284 286 285 286 294 304 306 305 305 304 303 303 303 301 299 299 298 296 293 293 292
Wind_Speed
14 14 13 11 10 10 10 11 14 14 16 17 17 16 15 16 16 10 9 10 4 5 16 18 12 15 14 12 6 15 8 4 5 8 7 6 5 6 6 7 7 6 8 7 8 6 7 15 7 15 14 23 20 17
15 15 13 12 11 10 10 11 13 15 15 16 17 17 16 16 16 12 8 6 2 5 14 23 26 26 23 21 12 1 7 4 3 4 6 5 4 5 7 4 8 4 7 4 6 3 11 3 17 14 16 25 22 23
16 16 14 12 9 10 11 12 14 14 16 17 18 17 17 16 15 10 7 9 3 5 12 9 10 3 13 13 6 5 2 3 3 3 3 3 5 3 4 3 6 9 16 5 2 11 9 20 21 20 20 22 25 25
17 16 14 11 10 10 10 12 14 15 16 17 18 18 19 18 16 13 7 6 1 4 5 8 13 15 14 12 6 12 15 5 3 2 3 4 4 2 2 4 4 6 9 5 3 5 15 16 20 20 20 23 27 26
17 15 12 11 10 9 11 13 15 16 17 19 20 19 18 18 17 12 10 8 8 3 5 10 24 8 7 9 9 12 8 7 2 2 4 3 3 2 2 1 4 8 5 3 3 7 10 14 20 21 24 26 26 29
15 13 11 9 10 11 12 13 16 17 18 20 21 21 21 20 14 6 1 1 4 4 4 6 10 8 12 13 8 15 2 2 2 2 2 2 3 2 3 3 8 11 7 4 4 11 19 19 17 19 24 25 23 23
14 12 10 11 9 11 12 15 17 19 20 21 22 22 22 18 8 5 5 3 1 5 3 6 7 3 8 12 4 4 3 1 1 1 2 3 4 4 4 5 11 9 11 13 10 15 18 17 14 18 26 23 24 23
13 10 10 9 10 11 13 15 17 19 21 22 22 22 18 14 12 7 4 4 3 3 3 4 7 10 13 9 4 3 3 2 3 2 0 3 3 3 4 4 7 12 14 18 20 18 20 19 18 17 17 20 21 21
11 9 8 10 10 12 13 15 17 20 21 22 23 20 5 5 5 4 3 5 3 3 3 3 5 6 9 10 6 4 3 3 2 4 4 4 4 7 5 3 6 6 9 19 19 19 19 21 17 14 16 18 22 20
10 9 10 10 10 12 12 15 17 21 24 24 11 7 5 5 5 6 4 5 5 4 4 5 4 7 8 8 2 5 1 1 2 3 2 5 4 7 13 15 14 16 14 17 20 21 20 21 18 19 19 16 18 18
9 8 8 10 11 11 12 14 16 20 18 3 4 4 8 4 5 3 3 3 4 3 5 7 3 9 5 8 4 3 4 5 3 5 3 4 4 8 13 16 16 15 13 17 17 18 19 19 19 20 19 19 18 18
9 8 9 9 10 11 12 12 14 8 5 7 8 7 5 4 2 4 4 1 5 4 3 8 10 7 4 1 3 2 4 4 4 4 4 4 5 8 10 16 19 14 15 18 18 20 18 18 18 17 17 17 17 16
7 7 8 9 10 11 11 11 7 10 14 2 3 4 3 3 1 5 4 3 1 5 6 7 9 5 3 3 3 1 5 4 3 3 4 2 0 8 12 12 15 17 18 18 18 18 18 18 18 17 16 15 15 14
6 7 9 10 10 10 10 7 9 9 5 2 3 4 5 4 4 4 6 6 5 5 6 6 5 2 4 3 1 3 2 1 3 4 4 3 7 9 9 13 15 16 16 17 17 17 18 17 17 17 15 14 14 13
6 9 10 12 9 3 4 8 9 5 3 3 3 5 2 2 1 3 3 3 3 5 6 6 3 3 4 3 2 3 3 4 5 3 1 5 6 13 14 12 13 14 14 14 15 15 16 16 15 16 14 13 13 13
8 14 8 6 1 6 8 10 3 3 3 3 5 5 6 4 1 3 3 3 3 3 4 3 3 1 2 3 1 4 2 3 2 1 1 4 7 12 13 13 13 12 13 12 12 14 15 15 15 15 15 13 13 13
6 2 9 3 6 10 10 4 4 4 5 4 4 4 7 2 4 5 4 4 4 3 3 3 3 2 2 2 2 4 4 3 2 1 1 2 8 11 13 12 13 13 13 13 14 13 14 15 14 13 14 12 11 12
4 7 6 1 6 4 3 4 3 4 6 8 4 3 4 2 4 2 3 4 3 3 2 2 3 1 1 3 3 3 4 1 1 3 6 7 7 5 8 13 12 12 13 13 13 14 14 13 12 10 13 12 11 11
5 6 9 7 4 2 3 4 5 4 6 3 3 5 5 5 4 4 4 1 2 1 3 3 2 1 3 3 4 5 5 1 1 2 7 9 2 13 14 14 12 12 12 13 13 10 9 10 10 9 9 10 8 8
10 11 7 4 5 2 4 4 5 4 5 4 4 4 5 3 3 2 1 1 2 1 3 1 2 3 4 4 3 5 5 2 1 5 8 7 6 7 9 10 8 11 11 12 9 8 8 8 8 8 7 8 7 8
7 3 3 5 3 4 4 3 4 4 4 5 3 3 4 3 2 3 3 2 2 2 3 4 3 1 4 3 2 5 6 3 2 5 9 9 12 11 11 8 12 10 10 8 9 7 4 6 7 7 7 7 7 7
2 1 2 3 3 3 4 4 4 3 3 5 5 5 5 3 2 2 5 1 1 2 1 2 2 1 2 3 1 7 7 5 3 4 1 8 9 9 9 9 9 8 7 7 7 7 6 7 7 8 7 8 6 8
3 3 3 4 3 2 5 6 4 4 3 4 3 4 4 3 3 3 1 2 1 3 2 1 1 1 1 2 4 8 10 8 3 4 7 6 8 8 8 8 7 7 7 8 8 7 7 8 6 7 9 8 8 9
2 3 4 3 5 5 3 4 4 3 3 5 4 4 3 2 5 4 3 0 4 2 4 3 3 3 2 5 6 8 8 2 3 3 6 6 7 8 6 7 7 5 5 7 7 7 9 9 9 8 9 9 8 9
2 3 4 4 4 5 5 4 4 4 6 6 4 3 4 1 2 3 3 4 3 3 2 2 3 4 4 4 8 9 10 8 6 6 2 3 5 6 6 5 4 5 5 6 6 9 10 10 9 8 10 8 8 8
3 5 5 5 4 5 3 3 3 4 5 4 2 5 5 4 2 5 3 6 1 2 1 2 2 3 3 4 4 8 8 6 5 6 6 5 6 5 6 8 5 4 4 6 7 9 11 10 10 10 8 7 3 5
3 4 4 5 4 2 4 3 2 2 4 3 2 5 4 3 4 4 4 4 4 4 4 2 2 3 1 3 5 3 3 2 6 1 1 6 7 8 8 8 9 9 8 8 8 9 9 9 9 9 7 7 8 9
4 4 4 4 4 2 4 4 4 3 0 1 3 4 2 4 3 4 5 4 4 4 5 5 3 3 2 2 2 2 3 4 4 5 4 2 6 7 9 6 4 7 6 9 10 10 9 8 8 9 10 9 8 9
4 4 5 6 5 4 4 2 1 1 1 2 1 3 4 3 4 6 4 5 1 0 4 2 4 1 2 2 3 4 4 1 7 10 10 7 5 4 5 7 8 8 6 7 6 7 2 6 8 8 8 7 7 6
4 5 4 5 5 4 2 2 1 2 2 2 2 6 6 5 3 3 2 1 1 1 2 3 4 3 2 4 2 2 3 5 5 3 4 6 8 6 8 9 8 9 8 7 9 7 1 5 3 5 5 6 6 7
2 4 3 4 4 1 1 2 2 3 1 3 3 6 4 3 3 3 3 2 1 1 3 2 2 3 3 3 3 2 5 4 7 2 4 5 8 10 9 7 6 5 5 5 6 6 7 8 9 9 9 10 7 6
4 6 3 4 3 2 3 2 4 3 2 2 2 2 2 2 3 2 3 4 2 3 3 4 3 4 5 4 4 3 4 7 3 1 5 3 4 5 5 5 5 4 7 8 7 8 9 10 6 5 6 8 7 8
5 3 4 2 3 4 4 3 4 3 4 4 3 2 2 1 2 2 2 3 3 4 3 3 5 5 5 4 3 3 5 4 5 6 7 9 9 4 3 5 5 5 6 5 4 3 3 5 4 4 6 8 9 6
Wind_Direction
216 222 232 246 259 271 284 297 301 306 312 315 320 322 318 315 317 321 289 286 267 258 287 282 296 284 281 277 297 305 326 44 326 346 356 352 334 336 327 340 332 317 332 13 344 93 81 354 281 176 118 139 150 144
208 215 226 237 251 264 279 290 299 305 312 314 316 316 316 313 310 316 280 292 360 248 275 295 281 270 264 276 291 17 287 325 315 322 7 315 322 315 341 328 327 354 27 40 12 26 290 43 113 88 123 130 115 112
210 214 221 235 247 267 284 298 300 305 307 311 314 312 310 308 306 301 288 293 286 281 286 263 281 321 216 236 226 268 221 179 248 59 309 290 284 354 320 326 295 350 21 44 322 340 53 88 93 99 113 117 119 122
206 212 221 229 245 263 285 292 295 299 305 310 310 311 309 308 309 303 275 277 240 276 286 301 338 311 320 295 269 237 259 208 212 182 237 266 274 328 337 298 341 345 314 38 59 359 50 71 92 105 104 107 107 101
204 209 218 233 252 271 287 294 301 305 309 309 309 310 307 310 312 294 258 230 227 267 295 303 297 296 311 292 310 249 190 235 185 245 215 243 303 314 227 320 31 332 323 346 36 6 87 92 103 104 101 105 109 110
197 203 219 237 259 281 293 298 299 305 308 310 309 309 309 310 312 290 238 135 168 145 283 293 348 305 303 330 285 85 149 154 198 256 332 306 273 273 3 63 352 347 37 13 86 66 86 89 89 105 104 105 106 110
191 201 212 234 259 281 294 299 305 308 309 310 307 306 308 302 272 254 13 75 268 140 257 287 283 293 2 324 70 70 1 134 353 326 292 315 2 358 36 36 333 31 59 73 69 86 74 71 88 98 107 111 111 105
187 190 230 255 272 283 293 302 306 309 309 307 304 307 306 290 276 250 151 186 263 249 244 282 288 313 25 343 9 34 351 51 19 349 321 358 21 24 62 14 55 78 86 78 76 73 90 94 88 90 98 105 105 108
177 211 239 259 279 291 300 307 310 310 309 304 304 302 265 234 221 95 158 193 216 257 293 282 300 320 307 343 48 338 13 27 332 23 28 9 11 39 329 133 87 71 87 106 96 93 93 93 100 109 113 110 104 105
190 222 247 264 280 291 304 310 315 315 308 301 284 214 207 39 330 263 171 197 186 185 219 255 249 286 316 343 5 343 359 319 84 75 106 28 53 117 89 82 87 101 110 131 131 124 122 128 123 109 103 104 101 105
206 229 254 273 287 300 307 314 320 324 287 282 313 318 358 335 248 221 249 237 217 211 216 247 331 328 0 359 337 30 338 349 33 22 62 51 41 68 138 132 140 151 127 91 87 88 100 105 111 109 107 105 104 104
211 233 256 273 290 300 310 313 315 303 324 337 302 289 279 249 272 271 241 262 222 226 328 356 328 350 304 63 286 46 357 7 52 315 48 53 19 68 86 99 113 112 113 113 108 105 107 107 105 105 104 102 103 109
217 246 267 283 293 304 309 310 331 309 286 204 236 248 255 231 316 217 207 233 31 354 4 351 306 354 325 242 258 77 25 17 268 61 63 47 260 105 109 107 104 107 107 107 106 106 106 105 101 101 104 105 107 106
241 263 275 282 289 295 295 322 327 309 277 267 276 269 241 207 257 334 345 17 6 337 317 325 324 292 308 340 337 33 110 285 19 61 70 196 153 133 117 123 121 116 113 112 112 112 109 109 110 106 106 111 112 113
268 276 282 274 278 262 303 309 304 270 262 260 237 250 258 280 226 329 0 323 311 303 308 315 354 325 301 341 18 8 90 53 28 62 107 182 169 140 131 119 113 118 119 115 114 113 114 111 110 108 108 109 110 112
282 279 241 155 88 314 311 286 239 251 266 250 243 257 269 210 199 300 295 305 316 306 292 256 279 11 10 314 39 36 62 57 80 90 18 210 138 131 130 130 123 114 111 113 115 116 120 119 113 113 113 112 110 113
272 265 127 141 291 291 281 251 190 226 259 242 263 252 249 275 215 230 283 294 359 302 343 339 298 14 311 313 85 39 45 56 86 217 196 201 149 141 150 138 129 126 125 124 127 127 120 121 126 121 116 114 116 115
262 114 123 240 306 323 189 219 253 243 237 243 242 309 261 259 260 325 338 338 305 328 302 349 310 268 318 3 53 96 62 11 317 243 132 154 138 170 145 136 134 133 128 132 127 129 136 138 138 126 125 118 117 121
353 330 335 320 291 300 260 209 241 262 259 300 250 192 229 228 257 22 327 98 292 297 295 288 285 23 46 39 73 90 94 47 320 60 124 135 178 188 157 153 143 137 134 133 142 146 146 162 125 146 138 157 134 140
272 281 280 269 225 228 237 222 227 245 276 310 277 227 229 230 161 160 128 313 328 269 243 245 28 27 14 32 36 101 95 115 222 139 124 133 156 154 162 136 150 138 139 155 152 150 148 138 156 146 166 131 140 133
216 113 216 228 217 230 265 273 246 234 305 280 257 249 258 228 137 193 121 70 8 305 349 27 17 84 335 289 282 113 112 152 183 176 133 149 155 152 196 188 150 161 157 157 159 128 176 151 145 125 143 160 136 155
108 156 244 192 252 239 258 238 230 256 258 251 266 225 258 184 173 144 141 163 315 315 47 100 263 8 273 311 190 127 138 156 149 144 234 162 174 168 164 163 170 161 156 152 160 166 167 143 139 160 156 117 147 126
165 212 230 219 241 215 257 227 241 235 247 265 245 234 228 128 94 75 34 80 195 156 237 239 216 13 30 237 186 131 134 130 127 122 234 185 158 160 161 164 166 170 164 165 158 180 147 129 155 160 129 167 139 128
142 234 246 228 217 257 230 226 232 232 233 232 239 232 135 90 144 197 108 60 75 194 200 212 138 258 239 195 148 131 124 116 133 196 209 176 169 163 163 163 169 160 165 160 168 159 140 175 159 165 166 174 172 160
195 225 182 251 254 245 227 216 222 212 246 221 221 154 99 36 217 138 142 104 244 267 18 273 182 145 167 148 121 144 159 151 185 177 205 126 140 140 151 153 144 167 180 174 174 161 165 163 190 188 176 186 187 194
242 201 191 225 232 218 253 218 207 264 294 256 175 111 157 244 191 87 87 111 86 24 72 348 77 107 118 105 112 140 151 186 167 165 195 180 186 178 177 163 169 174 194 199 180 175 179 170 193 196 195 164 87 233
233 247 211 214 249 281 263 226 243 258 274 239 182 180 191 194 78 90 115 94 107 85 80 66 88 110 78 68 107 132 104 142 90 46 182 175 166 156 176 188 192 194 188 186 181 182 189 187 186 193 206 192 183 218
258 292 242 206 209 226 258 276 223 240 257 280 244 204 122 55 78 108 120 94 85 90 88 84 100 146 143 182 223 189 232 175 165 192 162 245 165 174 171 215 181 73 219 189 188 187 191 193 197 200 207 213 202 196
231 219 223 229 215 247 239 280 333 232 200 273 297 56 64 69 80 97 109 102 61 84 154 139 81 55 327 245 216 254 221 257 191 194 199 167 176 179 180 154 167 189 189 162 81 26 264 218 220 210 210 213 222 196
216 190 218 241 230 241 259 75 142 121 89 64 84 102 98 94 97 98 100 158 224 350 55 30 337 343 354 315 293 224 229 228 285 233 222 207 205 202 199 195 178 185 193 182 180 170 73 194 179 200 218 222 218 206
284 199 219 233 246 239 131 82 114 139 95 62 31 72 72 112 61 359 32 2 143 125 245 311 5 301 309 335 1 308 287 187 243 179 330 200 194 213 184 198 193 194 168 206 213 190 194 204 207 217 218 221 207 201
206 203 230 230 239 238 233 198 173 156 146 178 98 88 119 91 126 99 5 337 327 311 49 307 33 52 38 38 75 343 242 297 195 306 185 235 138 140 172 190 188 178 193 188 192 203 197 210 204 194 217 208 183 197
207 219 248 232 233 231 205 188 193 200 187 195 184 196 149 102 88 103 40 7 352 4 40 20 54 47 22 35 29 351 324 32 34 28 28 26 26 2 157 148 139 165 171 176 165 142 138 135 160 136 95 83 82 90